Location: Apeadero de Los Molinos-Guadarrama
(40.7091°N, 4.0689°W)
Time: 19:48:35
(UTC+00:00)

Cosmos 2278 Rocket - Visible Passes

Search period start: 24 September 2021 00:00
Search period end: 04 October 2021 00:00
Orbit: 839 x 847 km, 71.0° (Epoch: 24 September)

Date Brightness Start Highest point End Pass type
(mag) Time Alt. Az. Time Alt. Az. Time Alt. Az.
24 Sep 5.0 01:22:48 10° NNE 01:24:17 11° NE 01:24:17 11° NE visible
24 Sep 4.1 03:04:14 10° NNW 03:17:42 - SSE 03:05:56 20° NNW visible
24 Sep4.804:59:48SSW04:59:48SSW04:47:36NWvisible
25 Sep 4.7 02:49:39 10° NNW 02:49:49 11° NNW 02:49:49 11° NNW visible
25 Sep 5.3 19:30:35 10° NW 19:31:36 10° NW 19:32:38 10° NNW visible
26 Sep 5.2 19:15:31 10° WNW 19:16:58 11° NW 19:18:24 10° NNW visible
27 Sep 5.1 19:00:33 10° WNW 19:02:20 11° NW 19:04:06 10° NNW visible
28 Sep 5.0 18:45:38 10° WNW 18:47:41 12° NW 18:49:44 10° NNW visible
29 Sep 5.0 18:30:46 10° WNW 18:33:03 12° NW 18:35:20 10° NNW visible
